[[{"header":{"parameterUnit":"m.s-1","parameterCategory":1,"la1":30.2992,"la2":30.254,"lo1":-89.0895,"lo2":-89.0443,"dy":0.0025,"dx":0.0025,"nx":19,"ny":19,"refTime":"2026-04-12T03:00:00:Z","depth":0,"parameterNumber":2,"parameterNumberName":"U-component_of_WINDS"},"data":[0,0,0,-1.6573,-1.6574,-1.6639,-1.6639,-1.672,-1.6721,0,0,0,0,0,0,0,0,0,0,0,-1.6551,-1.6551,-1.6573,-1.6574,-1.6639,-1.6639,-1.672,-1.6721,0,0,0,0,0,0,0,0,0,0,0,-1.6551,-1.6551,-1.6552,-1.6575,-1.6639,-1.6639,-1.672,-1.6672,0,0,0,0,0,0,0,0,0,0,-1.661,-1.6586,-1.6551,-1.6552,-1.6575,-1.6639,-1.6639,-1.667,-1.6675,-1.6689,0,-1.67,0,-1.6712,-1.6726,-1.6726,0,0,0,-1.6577,-1.6582,-1.6602,-1.6552,-1.6576,-1.6639,-1.6611,-1.6673,-1.6679,-1.6696,-1.6701,-1.6705,-1.6713,-1.6726,-1.6727,-1.68,-1.68,0,0,-1.6573,-1.6561,-1.6598,-1.6605,-1.6594,-1.6608,-1.6613,-1.6676,-1.6682,-1.6702,-1.6707,-1.6714,-1.6727,-1.6728,-1.6799,-1.68,0,0,0,-1.6561,-1.6559,-1.6577,-1.6602,-1.6614,-1.661,-1.6615,-1.6679,-1.6686,-1.6707,-1.6715,-1.6727,-1.6728,-1.6799,-1.68,-1.6799,0,0,0,-1.6559,-1.6552,-1.6576,-1.6569,-1.6613,-1.6647,-1.6616,-1.6681,-1.6689,-1.6715,-1.6727,-1.6729,-1.6799,-1.6799,-1.6798,-1.68,0,0,0,-1.6548,-1.6551,-1.6559,-1.6568,-1.6596,-1.6646,-1.6657,-1.6683,-1.6694,-1.6726,-1.6729,-1.6799,-1.6799,-1.6798,-1.6799,-1.6815,0,0,0,-1.6532,-1.6558,-1.6559,-1.6591,-1.6595,-1.6645,-1.6656,-1.6695,-1.6723,-1.6728,-1.6799,-1.68,-1.6798,-1.6799,-1.6814,-1.6825,-1.6829,0,0,-1.6558,-1.656,-1.658,-1.6583,-1.6629,-1.6636,-1.6683,-1.672,-1.6735,-1.6778,-1.678,-1.6798,-1.6799,-1.6815,-1.6856,-1.6859,0,0,0,-1.6584,-1.6598,-1.6613,-1.6639,-1.6667,-1.6692,-1.6724,-1.6738,-1.6774,-1.6754,-1.6809,-1.681,-1.682,-1.6826,-1.6828,-1.6837,-1.6802,-1.6802,-1.6802,-1.6603,-1.6619,-1.6653,-1.6678,-1.6703,-1.6736,-1.6758,-1.6782,-1.6793,-1.6806,-1.6818,-1.684,-1.6847,-1.6848,-1.6858,-1.6826,-1.6826,-1.6826,-1.6826,-1.6641,-1.6663,-1.6676,-1.6713,-1.6732,-1.6764,-1.6797,-1.6803,-1.6836,-1.6832,-1.6842,-1.6835,-1.6851,-1.686,-1.6826,-1.6826,-1.6826,-1.6826,-1.6826,-1.6653,-1.6667,-1.6684,-1.6723,-1.6752,-1.6777,-1.6808,-1.6825,-1.684,-1.685,-1.6864,-1.6864,-1.6866,-1.6856,-1.6856,-1.6856,-1.6856,-1.6856,-1.6856,-1.6659,-1.6678,-1.6702,-1.6735,-1.6754,-1.6782,-1.6816,-1.6836,-1.6862,-1.6871,-1.6871,-1.688,-1.685,-1.6841,-1.6858,-1.6857,-1.6857,-1.6857,-1.6857,-1.6689,-1.6685,-1.6722,-1.6741,-1.6782,-1.681,-1.6831,-1.687,-1.6889,-1.6904,-1.6911,-1.6887,-1.689,-1.6889,-1.6882,-1.6908,-1.6908,-1.6908,-1.6908,-1.6699,-1.6703,-1.6744,-1.6773,-1.6805,-1.6827,-1.6869,-1.6897,-1.6925,-1.6938,-1.6937,-1.693,-1.6927,-1.6933,-1.693,-1.6923,-1.696,-1.696,-1.696,-1.6718,-1.6726,-1.6757,-1.6784,-1.6818,-1.6847,-1.6887,-1.6922,-1.6953,-1.6962,-1.6949,-1.6947,-1.6935,-1.693,-1.6937,-1.6932,-1.6921,0,0]},{"header":{"parameterUnit":"m.s-1","parameterCategory":1,"la1":30.2992,"la2":30.254,"lo1":-89.0895,"lo2":-89.0443,"dy":0.0025,"dx":0.0025,"nx":19,"ny":19,"refTime":"2026-04-12T03:00:00:Z","depth":0,"parameterNumber":3,"parameterNumberName":"V-component_of_WINDS"},"data":[0,0,0,3.2272,3.2272,3.23,3.2301,3.233,3.2331,0,0,0,0,0,0,0,0,0,0,0,3.2259,3.2259,3.2272,3.2272,3.23,3.2301,3.233,3.2331,0,0,0,0,0,0,0,0,0,0,0,3.2259,3.2259,3.2259,3.2272,3.23,3.2301,3.233,3.2311,0,0,0,0,0,0,0,0,0,0,3.2285,3.2269,3.2259,3.2259,3.2272,3.23,3.2301,3.2311,3.2313,3.2315,0,3.2315,0,3.2323,3.2332,3.2332,0,0,0,3.2275,3.2267,3.2279,3.2259,3.2273,3.23,3.2289,3.2312,3.2314,3.2317,3.2316,3.2317,3.2324,3.2332,3.2332,3.2335,3.2334,0,0,3.2274,3.2262,3.2277,3.228,3.2275,3.2288,3.2289,3.2313,3.2311,3.2316,3.2318,3.2324,3.2332,3.2333,3.2335,3.2335,0,0,0,3.2267,3.226,3.2272,3.2279,3.2284,3.2288,3.229,3.231,3.2314,3.2318,3.2325,3.2333,3.2333,3.2335,3.2335,3.2316,0,0,0,3.2266,3.2257,3.2271,3.2263,3.2284,3.2297,3.2286,3.2313,3.2316,3.2325,3.2333,3.2333,3.2335,3.2335,3.2317,3.2309,0,0,0,3.2259,3.2256,3.2258,3.2263,3.2274,3.2297,3.2303,3.2314,3.232,3.2332,3.2333,3.2335,3.2335,3.2317,3.231,3.2306,0,0,0,3.2247,3.224,3.2258,3.2254,3.2274,3.2285,3.2303,3.2312,3.2321,3.2333,3.2335,3.2335,3.2318,3.2311,3.2307,3.23,3.2296,0,0,3.2232,3.2238,3.2237,3.2253,3.2258,3.2282,3.2284,3.2303,3.2316,3.2328,3.2328,3.2316,3.231,3.2306,3.2279,3.2276,0,0,0,3.2228,3.2227,3.2231,3.2239,3.2254,3.2266,3.2287,3.2295,3.2306,3.2319,3.2314,3.2311,3.2309,3.2307,3.2304,3.2303,3.2333,3.2333,3.2333,3.2189,3.2206,3.2205,3.2226,3.2233,3.2256,3.2264,3.2278,3.2292,3.2291,3.2294,3.2276,3.2272,3.227,3.227,3.2292,3.2292,3.2292,3.2292,3.2169,3.217,3.2191,3.2197,3.2216,3.2222,3.2243,3.2254,3.2262,3.2274,3.2274,3.2285,3.2266,3.2267,3.2291,3.2291,3.2291,3.2291,3.2291,3.2145,3.2148,3.2158,3.2173,3.2182,3.2204,3.2211,3.2228,3.2243,3.2243,3.2249,3.2249,3.2252,3.2245,3.2244,3.2244,3.2244,3.2244,3.2244,3.2116,3.2128,3.2132,3.2149,3.2157,3.217,3.2193,3.2202,3.2216,3.2227,3.2227,3.2242,3.2261,3.2266,3.2243,3.2244,3.2244,3.2244,3.2244,3.2089,3.2098,3.2104,3.2112,3.2134,3.2143,3.2165,3.2181,3.2191,3.2195,3.221,3.2222,3.2229,3.2232,3.2235,3.2206,3.2206,3.2206,3.2206,3.2068,3.2074,3.2085,3.2097,3.2111,3.2132,3.214,3.2159,3.218,3.2188,3.2195,3.2201,3.2203,3.2209,3.2212,3.2216,3.2183,3.2183,3.2183,3.2053,3.2061,3.2064,3.2085,3.2104,3.212,3.2128,3.2142,3.2168,3.2182,3.2194,3.2195,3.2206,3.2208,3.2221,3.2225,3.2232,0,0]}]]